Regional Weather Roundup
Issued by NWS Charleston, SC

Current Version | Previous Version | Text Only | Print | Product List | Glossary On
Versions: 1 2 3 4 5 6 7 8 9 10 11 12 13 14 15 16 17 18 19 20 21 22 23 24 25 26 27 28 29 30 31 32 33 34 35 36 37 38 39 40 41 42 43 44 45 46 47 48 49 50
000
ASUS42 KCHS 262011
RWRCHS

REGIONAL WEATHER ROUNDUP
NATIONAL WEATHER SERVICE CHARLESTON SC
300 PM EST SUN FEB 26 2017

NOTE: "FAIR" INDICATES FEW OR NO CLOUDS BELOW 12,000 FEET WITH NO
SIGNIFICANT WEATHER AND/OR OBSTRUCTIONS TO VISIBILITY.

NOT ALL STATIONS ARE QUALITY CONTROLLED. USE DATA WITH CAUTION...
ESPECIALLY DEWPOINT OBSERVATIONS.

SCZ027-030-031-034>040-042>050-262100-
...SOUTHEAST SOUTH CAROLINA...

CITY           SKY/WX    TMP DP  RH WIND       PRES   REMARKS
N CHARLESTON   SUNNY     66  18  15 VRB5      30.18F
WATERFRONT PRK   N/A     58  36  43 S7        30.19S
MOUNT PLEASANT FAIR      61  34  36 S10       30.19S
JOHNS ISLAND   FAIR      59  34  38 S8        30.19F
PINOPOLIS        N/A     57  27  30 VRB2      30.11F
MONCKS CORNER  FAIR      61  21  21 N5        30.19F
SUMMERVILLE    FAIR      63  21  20 NW5       30.19F
BEAUFORT MCAS  SUNNY     67  24  19 VRB3      30.19F
BEAUFORT ARPT  FAIR      63  28  27 NW7       30.19S HAZE
HILTON HEAD IS SUNNY     59  34  38 SE7       30.21F
WALTERBORO     CLEAR     64  21  19 W8        30.19F
ALLENDALE      FAIR      64  18  16 N6        30.17F

...SOUTHERN MIDLANDS AND PEE DEE...

CITY           SKY/WX    TMP DP  RH WIND       PRES   REMARKS
GEORGETOWN     FAIR      63  19  19 W8        30.20R
KINGSTREE      FAIR      61  19  20 NW5       30.19S
ORANGEBURG     SUNNY     63  17  17 W5        30.18F
BARNWELL       FAIR      66  18  15 W3G12     30.18S
AIKEN          FAIR      61  18  18 NW6       30.20F
MANNING        FAIR     N/A N/A N/A MISG      30.19S
COLUMBIA       SUNNY     62  18  18 NW3       30.18F
SUMTER         SUNNY     62  17  17 NW8       30.16F
FLORENCE       SUNNY     59  20  22 VRB3      30.19F
MYRTLE BEACH   SUNNY     57  28  33 S13       30.19F
N MYRTLE BEACH SUNNY     57  30  35 S13       30.18S

$$

GAZ063-065-086>088-099>101-113>116-118-119-134>141-150-262100-
...SOUTHEAST GEORGIA...

CITY           SKY/WX    TMP DP  RH WIND       PRES   REMARKS
SAVANNAH ARPT  SUNNY     68  18  14 NW8       30.19F
HUNTER AAF     SUNNY     67  29  24 NW8       30.17F
FORT STEWART   SUNNY     66  21  18 NW7       30.17F
STATESBORO     SUNNY     65  27  23 CALM      30.19F
SYLVANIA       CLEAR    N/A N/A N/A CALM      30.19F
CLAXTON        FAIR      66  28  24 NE3       30.19F

...CSRA...CENTRAL AND FAR SOUTHEAST GEORGIA...

CITY           SKY/WX    TMP DP  RH WIND       PRES   REMARKS
THOMSON        SUNNY     66  26  22 W3        30.21F
AUGUSTA-BUSH   SUNNY     67  16  14 VRB5      30.17F
AUGUSTA-DANIEL SUNNY     65  15  14 VRB7      30.18F
SWAINSBORO     FAIR      64  18  16 NW6       30.19F
VIDALIA        SUNNY     66  32  28 N5        30.19F
EASTMAN        FAIR     N/A N/A N/A CALM      30.21F
HAZLEHURST     FAIR      68  26  21 E5        30.18F
ALMA           SUNNY     67  21  17 CALM      30.19F
WAYCROSS       SUNNY     70  26  19 CALM      30.20S
JESUP          FAIR      70  18  13 CALM      30.20S
BAXLEY         FAIR      66  32  28 E5        30.19F
BRUNSWICK      SUNNY     68  28  22 W5        30.20S
SAINT SIMONS   SUNNY     63  36  36 E10       30.20S

$$

SCZ027-028-034-036>038-045-046-048>050-GAZ119-141-262100-
...LAKE AND SUPPLEMENTAL COASTAL OBSERVATIONS...

STATION/POSITION TIME  TEMP    WIND        PRES    WAVE   SWELL
                       AIR SEA DIR/SP/G            HT/PER HT/PER/DIR
                 (UTC) (F)     (DEG/KT/KT) (MB)    (FT/S) (FT/S/D)
WINYAH BAY       1845   54     100/  6     1022.0
LAKE MURRAY      1920   55     160/  4/  7 1022.0
ACE BASIN NERRS  1845   63     230/  2     1022.0
FORT PULASKI     1948   60 63   70/  2/  4 1022.7F
SAPELO ISLAND    1900   67      10/  1     1023.0

$$

ANZ835-935-AMZ111-154-330-350-352-354-370-450-454-472-262100-
...C-MAN AND BUOY OBSERVATIONS...

STATION/POSITION TIME  TEMP    WIND        PRES    WAVE   SWELL
                       AIR SEA DIR/SP/G            HT/PER HT/PER/DIR
                 (UTC) (F)     (DEG/KT/KT) (MB)    (FT/S) (FT/S/D)
BUOY 41004       1850   57 69  340/  4/  6 1022.6    3/ 9   3/120/ 9
BUOY 41008       1950   56 62   30/  6/  8 1023.1S   2/ 9   2/ 80/ 9
FOLLY BEACH CMAN 1900   57     170/  8/ 10 1023.5F
CAPERS NEARSHORE 1908   55 62  180/  8/ 10 1022.7F
FRIPP NEARSHORE  1908   56 63  170/  6/ 12 1022.9F


STATION/POSITION TIME  TEMP    WIND        PRES    WAVE   SWELL
                       AIR SEA DIR/SP/G            HT/PER HT/PER/DIR
                 (UTC) (F)     (DEG/KT/KT) (MB)    (FT/S) (FT/S/D)
5E ST. MARYS GA  1930      65                N/A     2/11   2/100/11
FRYING PAN BUOY  1950   54 70  330/  2/  6 1022.5R   3/ 9   3/100/ 9
BUOY 41025       1950   52 72  330/  6/ 10 1021.4R   5/ 9   5/150/ 9
CAPE LOOKOUT NC  1900   55     250/  5/  8 1021.0S
BUOY 41002       1850   68 71  340/ 14/ 17 1019.4    6/ 8   5/320/ 8
BUOY 41010       NOT AVBL
ST AUGUSTINE FL  2000   59 67   20/ 12/ 14 1023.6F


$$




USA.gov is the U.S. government's official web portal to all federal, state and local government web resources and services.